Wetterdaten: Dienstag, 24.05.2016
Datum Zeit Auen-Temp. Temp gefhlt Luftfeuchte Luftdruck Regen Wind Richtung Richtung Sonnenschein Taupunkt Windben
24.05.2016 00:00 5,2 C 4,9 C 85 % 1013,6 hPa 0,0 mm 5,1 km/h (1 Bft) S 180 0 min 2,9 C 6,3 km/h (2 Bft)
24.05.2016 00:05 5,2 C 4,9 C 85 % 1013,6 hPa 0,0 mm 5,1 km/h (1 Bft) W-NW 292 0 min 2,9 C 7,7 km/h (2 Bft)
24.05.2016 00:10 5,2 C 4,9 C 85 % 1013,6 hPa 0,0 mm 3,6 km/h (1 Bft) W-SW 247 0 min 2,9 C 4,5 km/h (1 Bft)
24.05.2016 00:15 5,2 C 4,9 C 85 % 1013,6 hPa 0,7 mm 3,3 km/h (1 Bft) S-SW 202 0 min 2,9 C 6,0 km/h (2 Bft)
24.05.2016 00:20 5,2 C 4,7 C 85 % 1013,6 hPa 0,0 mm 7,2 km/h (2 Bft) SW 225 0 min 2,9 C 20,6 km/h (4 Bft)
24.05.2016 00:25 5,2 C 4,7 C 85 % 1013,6 hPa 0,0 mm 7,5 km/h (2 Bft) S-SO 157 0 min 2,9 C 7,5 km/h (2 Bft)
24.05.2016 00:30 5,2 C 4,8 C 85 % 1013,2 hPa 0,0 mm 6,6 km/h (2 Bft) SW 225 0 min 2,9 C 16,1 km/h (3 Bft)
24.05.2016 00:35 5,2 C 4,8 C 85 % 1013,2 hPa 0,0 mm 6,6 km/h (2 Bft) S-SW 202 0 min 2,9 C 10,7 km/h (2 Bft)
24.05.2016 00:40 5,2 C 4,6 C 85 % 1013,2 hPa 0,0 mm 8,3 km/h (2 Bft) S 180 0 min 2,9 C 10,7 km/h (2 Bft)
24.05.2016 00:45 5,2 C 4,6 C 85 % 1013,2 hPa 0,0 mm 8,6 km/h (2 Bft) W-SW 247 0 min 2,9 C 15,8 km/h (3 Bft)
24.05.2016 00:50 5,2 C 4,6 C 85 % 1013,1 hPa 0,0 mm 7,7 km/h (2 Bft) S 180 0 min 2,9 C 5,4 km/h (1 Bft)
24.05.2016 00:55 5,2 C 4,7 C 85 % 1013,1 hPa 0,0 mm 7,2 km/h (2 Bft) W-SW 247 0 min 2,9 C 11,9 km/h (2 Bft)
24.05.2016 01:00 5,2 C 4,8 C 85 % 1013,1 hPa 0,0 mm 6,9 km/h (2 Bft) S 180 0 min 2,9 C 22,1 km/h (4 Bft)
24.05.2016 01:05 5,3 C 4,8 C 85 % 1013,1 hPa 0,0 mm 6,9 km/h (2 Bft) W-SW 247 0 min 3,0 C 10,4 km/h (2 Bft)
24.05.2016 01:10 5,3 C 4,7 C 85 % 1012,8 hPa 0,0 mm 8,0 km/h (2 Bft) SO 135 0 min 3,0 C 16,4 km/h (3 Bft)
24.05.2016 01:15 5,3 C 4,6 C 85 % 1012,8 hPa 0,0 mm 9,2 km/h (2 Bft) SO 135 0 min 3,0 C 8,6 km/h (2 Bft)
24.05.2016 01:20 5,3 C 4,7 C 85 % 1012,8 hPa 0,0 mm 8,6 km/h (2 Bft) S-SW 202 0 min 3,0 C 10,7 km/h (2 Bft)
24.05.2016 01:25 5,3 C 4,6 C 85 % 1012,8 hPa 0,0 mm 9,2 km/h (2 Bft) S 180 0 min 3,0 C 30,4 km/h (5 Bft)
24.05.2016 01:30 5,4 C 4,7 C 84 % 1012,8 hPa 0,7 mm 10,4 km/h (2 Bft) SW 225 0 min 2,9 C 10,1 km/h (2 Bft)
24.05.2016 01:35 5,4 C 4,7 C 84 % 1012,8 hPa 0,0 mm 9,5 km/h (2 Bft) N-NW 337 0 min 2,9 C 5,4 km/h (1 Bft)
24.05.2016 01:40 5,4 C 4,9 C 84 % 1012,8 hPa 0,0 mm 7,7 km/h (2 Bft) W 270 0 min 2,9 C 8,0 km/h (2 Bft)
24.05.2016 01:45 5,4 C 4,8 C 84 % 1012,8 hPa 0,0 mm 8,9 km/h (2 Bft) W 270 0 min 2,9 C 10,1 km/h (2 Bft)
24.05.2016 01:50 5,4 C 4,7 C 84 % 1012,9 hPa 0,0 mm 9,8 km/h (2 Bft) S-SO 157 0 min 2,9 C 16,7 km/h (3 Bft)
24.05.2016 01:55 5,5 C 4,7 C 84 % 1012,9 hPa 0,0 mm 9,2 km/h (2 Bft) W 270 0 min 3,0 C 3,3 km/h (1 Bft)
24.05.2016 02:00 5,5 C 5,0 C 84 % 1012,9 hPa 0,0 mm 7,7 km/h (2 Bft) SW 225 0 min 3,0 C 12,5 km/h (3 Bft)
24.05.2016 02:05 5,5 C 5,0 C 84 % 1012,9 hPa 0,0 mm 6,9 km/h (2 Bft) SW 225 0 min 3,0 C 14,9 km/h (3 Bft)
24.05.2016 02:10 5,5 C 5,0 C 84 % 1012,8 hPa 0,0 mm 7,5 km/h (2 Bft) N-NW 337 0 min 3,0 C 3,0 km/h (1 Bft)
24.05.2016 02:15 5,5 C 5,0 C 84 % 1012,8 hPa 0,0 mm 6,9 km/h (2 Bft) SW 225 0 min 3,0 C 10,7 km/h (2 Bft)
24.05.2016 02:20 5,5 C 5,2 C 84 % 1012,8 hPa 0,0 mm 5,7 km/h (1 Bft) SW 225 0 min 3,0 C 6,6 km/h (2 Bft)
24.05.2016 02:25 5,5 C 5,1 C 84 % 1012,8 hPa 0,0 mm 6,9 km/h (2 Bft) W 270 0 min 3,0 C 9,2 km/h (2 Bft)
24.05.2016 02:30 5,6 C 5,2 C 84 % 1012,7 hPa 0,0 mm 6,3 km/h (2 Bft) S-SW 202 0 min 3,1 C 8,6 km/h (2 Bft)
24.05.2016 02:35 5,6 C 5,3 C 84 % 1012,7 hPa 0,0 mm 5,7 km/h (1 Bft) W-SW 247 0 min 3,1 C 0,0 km/h (0 Bft)
24.05.2016 02:40 5,6 C 5,3 C 84 % 1012,7 hPa 0,0 mm 4,8 km/h (1 Bft) SW 225 0 min 3,1 C 16,4 km/h (3 Bft)
24.05.2016 02:42 5,6 C 5,3 C 84 % 1012,7 hPa 0,0 mm 4,8 km/h (1 Bft) SW 225 0 min 3,1 C 16,4 km/h (3 Bft)
24.05.2016 02:45 5,6 C 5,3 C 84 % 1012,7 hPa 0,0 mm 5,1 km/h (1 Bft) S-SO 157 0 min 3,1 C 20,0 km/h (4 Bft)
24.05.2016 02:50 5,7 C 5,3 C 84 % 1012,4 hPa 0,7 mm 6,0 km/h (2 Bft) NW 315 0 min 3,2 C 6,3 km/h (2 Bft)
24.05.2016 02:55 5,7 C 5,4 C 84 % 1012,4 hPa 0,0 mm 5,4 km/h (1 Bft) W 270 0 min 3,2 C 11,3 km/h (2 Bft)
24.05.2016 03:00 5,6 C 5,3 C 84 % 1012,4 hPa 0,0 mm 4,5 km/h (1 Bft) S 180 0 min 3,1 C 0,0 km/h (0 Bft)
24.05.2016 03:05 5,6 C 5,3 C 84 % 1012,4 hPa 0,0 mm 3,6 km/h (1 Bft) W 270 0 min 3,1 C 3,6 km/h (1 Bft)
24.05.2016 03:10 5,6 C 5,3 C 84 % 1012,4 hPa 0,0 mm 2,7 km/h (1 Bft) N-NW 337 0 min 3,1 C 6,0 km/h (2 Bft)
24.05.2016 03:15 5,6 C 5,3 C 84 % 1012,4 hPa 0,0 mm 4,5 km/h (1 Bft) NW 315 0 min 3,1 C 11,9 km/h (2 Bft)
24.05.2016 03:20 5,6 C 5,3 C 84 % 1012,4 hPa 0,0 mm 4,5 km/h (1 Bft) W-SW 247 0 min 3,1 C 6,9 km/h (2 Bft)
24.05.2016 03:25 5,6 C 5,3 C 84 % 1012,4 hPa 0,0 mm 3,6 km/h (1 Bft) SW 225 0 min 3,1 C 9,2 km/h (2 Bft)
24.05.2016 03:30 5,6 C 5,4 C 84 % 1012,4 hPa 0,0 mm 3,6 km/h (1 Bft) SW 225 0 min 3,1 C 3,6 km/h (1 Bft)
24.05.2016 03:35 5,7 C 5,4 C 84 % 1012,4 hPa 0,0 mm 5,4 km/h (1 Bft) S 180 0 min 3,2 C 7,2 km/h (2 Bft)
24.05.2016 03:40 5,7 C 5,4 C 84 % 1012,4 hPa 0,0 mm 4,5 km/h (1 Bft) NW 315 0 min 3,2 C 4,2 km/h (1 Bft)
24.05.2016 03:45 5,7 C 5,4 C 84 % 1012,4 hPa 0,0 mm 4,5 km/h (1 Bft) S-SW 202 0 min 3,2 C 8,3 km/h (2 Bft)
24.05.2016 03:50 5,7 C 5,4 C 84 % 1012,5 hPa 0,7 mm 3,0 km/h (1 Bft) W-NW 292 0 min 3,2 C 0,0 km/h (0 Bft)
24.05.2016 03:55 5,7 C 5,4 C 84 % 1012,5 hPa 0,0 mm 1,2 km/h (1 Bft) S 180 0 min 3,2 C 0,0 km/h (0 Bft)
24.05.2016 04:00 5,7 C 5,4 C 85 % 1012,5 hPa 0,0 mm 1,8 km/h (1 Bft) W 270 0 min 3,4 C 12,8 km/h (3 Bft)
24.05.2016 04:05 5,7 C 5,4 C 85 % 1012,5 hPa 0,0 mm 3,0 km/h (1 Bft) S 180 0 min 3,4 C 0,0 km/h (0 Bft)
24.05.2016 04:10 5,7 C 5,4 C 85 % 1012,6 hPa 0,0 mm 4,2 km/h (1 Bft) W 270 0 min 3,4 C 6,6 km/h (2 Bft)
24.05.2016 04:15 5,7 C 5,4 C 85 % 1012,6 hPa 0,0 mm 3,0 km/h (1 Bft) W-NW 292 0 min 3,4 C 0,0 km/h (0 Bft)
24.05.2016 04:20 5,7 C 5,5 C 85 % 1012,6 hPa 0,0 mm 3,3 km/h (1 Bft) SW 225 0 min 3,4 C 5,7 km/h (1 Bft)
24.05.2016 04:25 5,7 C 5,5 C 85 % 1012,6 hPa 0,7 mm 3,6 km/h (1 Bft) SW 225 0 min 3,4 C 0,0 km/h (0 Bft)
24.05.2016 04:30 5,7 C 5,5 C 85 % 1012,7 hPa 0,0 mm 2,1 km/h (1 Bft) W 270 0 min 3,4 C 0,0 km/h (0 Bft)
24.05.2016 04:35 5,7 C 5,5 C 85 % 1012,7 hPa 0,0 mm 0,9 km/h (0 Bft) W-SW 247 0 min 3,4 C 0,0 km/h (0 Bft)
24.05.2016 04:40 5,7 C 5,5 C 85 % 1012,7 hPa 0,0 mm 0,6 km/h (0 Bft) W-SW 247 0 min 3,4 C 0,0 km/h (0 Bft)
24.05.2016 04:45 5,7 C 5,5 C 85 % 1012,7 hPa 0,0 mm 1,2 km/h (1 Bft) W 270 0 min 3,4 C 6,0 km/h (2 Bft)
24.05.2016 04:50 5,7 C 5,5 C 85 % 1012,9 hPa 0,7 mm 0,9 km/h (0 Bft) W-SW 247 0 min 3,4 C 0,0 km/h (0 Bft)
24.05.2016 04:55 5,7 C 5,5 C 85 % 1012,9 hPa 0,0 mm 0,6 km/h (0 Bft) O-SO 112 0 min 3,4 C 0,0 km/h (0 Bft)
24.05.2016 05:00 5,7 C 5,5 C 85 % 1012,9 hPa 0,0 mm 0,9 km/h (0 Bft) W-SW 247 0 min 3,4 C 3,0 km/h (1 Bft)
24.05.2016 05:05 5,7 C 5,5 C 85 % 1012,9 hPa 0,0 mm 0,9 km/h (0 Bft) W-NW 292 0 min 3,4 C 0,0 km/h (0 Bft)
24.05.2016 05:10 5,7 C 5,5 C 85 % 1012,6 hPa 0,7 mm 0,6 km/h (0 Bft) O-SO 112 0 min 3,4 C 0,0 km/h (0 Bft)
24.05.2016 05:15 5,7 C 5,5 C 85 % 1012,6 hPa 0,0 mm 1,2 km/h (1 Bft) S 180 0 min 3,4 C 9,8 km/h (2 Bft)
24.05.2016 05:20 5,8 C 5,6 C 85 % 1012,6 hPa 0,0 mm 2,4 km/h (1 Bft) SW 225 0 min 3,5 C 11,0 km/h (2 Bft)
24.05.2016 05:25 5,8 C 5,6 C 85 % 1012,6 hPa 0,7 mm 3,0 km/h (1 Bft) W 270 0 min 3,5 C 7,7 km/h (2 Bft)
24.05.2016 05:30 5,8 C 5,6 C 85 % 1012,8 hPa 0,0 mm 3,6 km/h (1 Bft) SO 135 0 min 3,5 C 3,9 km/h (1 Bft)
24.05.2016 05:35 5,8 C 5,6 C 85 % 1012,8 hPa 0,7 mm 2,7 km/h (1 Bft) NW 315 0 min 3,5 C 0,0 km/h (0 Bft)
24.05.2016 05:40 5,8 C 5,6 C 85 % 1012,8 hPa 0,0 mm 1,8 km/h (1 Bft) O 90 0 min 3,5 C 0,0 km/h (0 Bft)
24.05.2016 05:43 5,8 C 5,6 C 85 % 1012,8 hPa 0,0 mm 0,6 km/h (0 Bft) W-SW 247 0 min 3,5 C 0,0 km/h (0 Bft)
24.05.2016 05:45 5,8 C 5,6 C 85 % 1012,8 hPa 0,0 mm 0,6 km/h (0 Bft) W-SW 247 0 min 3,5 C 0,0 km/h (0 Bft)
24.05.2016 05:50 5,8 C 5,6 C 85 % 1013,0 hPa 0,7 mm 1,8 km/h (1 Bft) S-SW 202 0 min 3,5 C 9,2 km/h (2 Bft)
24.05.2016 05:55 5,8 C 5,7 C 86 % 1013,0 hPa 0,0 mm 2,4 km/h (1 Bft) W-SW 247 0 min 3,6 C 0,0 km/h (0 Bft)
24.05.2016 06:00 5,8 C 5,7 C 86 % 1013,0 hPa 0,7 mm 1,2 km/h (1 Bft) O-SO 112 0 min 3,6 C 0,0 km/h (0 Bft)
24.05.2016 06:05 5,8 C 5,7 C 86 % 1013,0 hPa 0,0 mm 0,3 km/h (0 Bft) SW 225 0 min 3,6 C 0,0 km/h (0 Bft)
24.05.2016 06:10 5,9 C 5,7 C 86 % 1013,1 hPa 0,7 mm 3,0 km/h (1 Bft) W-SW 247 0 min 3,7 C 0,0 km/h (0 Bft)
24.05.2016 06:15 5,9 C 5,7 C 86 % 1013,1 hPa 0,0 mm 3,9 km/h (1 Bft) S 180 0 min 3,7 C 0,0 km/h (0 Bft)
24.05.2016 06:20 5,9 C 5,7 C 86 % 1013,1 hPa 0,7 mm 3,3 km/h (1 Bft) SW 225 0 min 3,7 C 7,2 km/h (2 Bft)
24.05.2016 06:25 5,9 C 5,7 C 86 % 1013,1 hPa 0,0 mm 4,8 km/h (1 Bft) W 270 0 min 3,7 C 0,0 km/h (0 Bft)
24.05.2016 06:30 5,9 C 5,7 C 86 % 1013,2 hPa 0,7 mm 6,3 km/h (2 Bft) S 180 0 min 3,7 C 14,9 km/h (3 Bft)
24.05.2016 06:35 5,9 C 5,7 C 86 % 1013,2 hPa 0,0 mm 6,6 km/h (2 Bft) S 180 0 min 3,7 C 6,9 km/h (2 Bft)
24.05.2016 06:40 6,0 C 5,7 C 85 % 1013,2 hPa 0,0 mm 6,0 km/h (2 Bft) W-SW 247 0 min 3,7 C 7,2 km/h (2 Bft)
24.05.2016 06:45 6,0 C 5,8 C 85 % 1013,2 hPa 0,0 mm 2,7 km/h (1 Bft) W-NW 292 0 min 3,7 C 0,0 km/h (0 Bft)
24.05.2016 06:50 6,0 C 5,8 C 85 % 1013,3 hPa 0,0 mm 1,2 km/h (1 Bft) SW 225 0 min 3,7 C 0,0 km/h (0 Bft)
24.05.2016 06:55 6,0 C 5,9 C 85 % 1013,3 hPa 0,7 mm 2,7 km/h (1 Bft) W-SW 247 0 min 3,7 C 6,9 km/h (2 Bft)
24.05.2016 07:00 6,0 C 5,9 C 85 % 1013,3 hPa 0,0 mm 2,4 km/h (1 Bft) W-SW 247 0 min 3,7 C 4,5 km/h (1 Bft)
24.05.2016 07:05 6,1 C 5,9 C 85 % 1013,3 hPa 0,0 mm 2,4 km/h (1 Bft) SO 135 0 min 3,8 C 8,6 km/h (2 Bft)
24.05.2016 07:10 6,1 C 5,9 C 85 % 1013,4 hPa 0,0 mm 3,6 km/h (1 Bft) W-SW 247 0 min 3,8 C 8,3 km/h (2 Bft)
24.05.2016 07:15 6,1 C 5,9 C 85 % 1013,4 hPa 0,0 mm 3,0 km/h (1 Bft) S 180 0 min 3,8 C 0,0 km/h (0 Bft)
24.05.2016 07:20 6,1 C 6,0 C 85 % 1013,4 hPa 0,7 mm 2,7 km/h (1 Bft) W 270 0 min 3,8 C 3,9 km/h (1 Bft)
24.05.2016 07:25 6,1 C 6,0 C 85 % 1013,4 hPa 0,0 mm 2,1 km/h (1 Bft) SW 225 0 min 3,8 C 0,0 km/h (0 Bft)
24.05.2016 07:30 6,1 C 6,0 C 85 % 1013,2 hPa 0,0 mm 3,0 km/h (1 Bft) W-SW 247 0 min 3,8 C 9,5 km/h (2 Bft)
24.05.2016 07:35 6,1 C 6,0 C 85 % 1013,2 hPa 0,0 mm 3,3 km/h (1 Bft) S 180 0 min 3,8 C 8,3 km/h (2 Bft)
24.05.2016 07:40 6,2 C 6,1 C 85 % 1013,2 hPa 0,0 mm 5,4 km/h (1 Bft) W-SW 247 0 min 3,9 C 7,2 km/h (2 Bft)
24.05.2016 07:45 6,2 C 6,1 C 86 % 1013,2 hPa 0,0 mm 4,5 km/h (1 Bft) O-SO 112 0 min 4,0 C 0,0 km/h (0 Bft)
24.05.2016 07:50 6,3 C 6,2 C 86 % 1013,1 hPa 0,7 mm 3,0 km/h (1 Bft) S 180 0 min 4,1 C 4,2 km/h (1 Bft)
24.05.2016 07:55 6,3 C 6,3 C 86 % 1013,1 hPa 0,0 mm 3,9 km/h (1 Bft) S 180 0 min 4,1 C 7,2 km/h (2 Bft)
24.05.2016 08:00 6,4 C 6,3 C 86 % 1013,1 hPa 0,0 mm 4,2 km/h (1 Bft) W 270 0 min 4,2 C 4,2 km/h (1 Bft)
24.05.2016 08:05 6,4 C 6,3 C 86 % 1013,1 hPa 0,0 mm 4,5 km/h (1 Bft) O 90 0 min 4,2 C 4,2 km/h (1 Bft)
24.05.2016 08:10 6,5 C 6,4 C 86 % 1013,4 hPa 0,0 mm 5,4 km/h (1 Bft) W 270 0 min 4,3 C 4,8 km/h (1 Bft)
24.05.2016 08:15 6,5 C 6,4 C 86 % 1013,4 hPa 0,0 mm 4,5 km/h (1 Bft) W-SW 247 0 min 4,3 C 9,2 km/h (2 Bft)
24.05.2016 08:20 6,6 C 6,5 C 86 % 1013,4 hPa 0,0 mm 4,2 km/h (1 Bft) NW 315 0 min 4,4 C 6,3 km/h (2 Bft)
24.05.2016 08:25 6,6 C 6,5 C 86 % 1013,4 hPa 0,7 mm 3,6 km/h (1 Bft) S-SO 157 0 min 4,4 C 5,7 km/h (1 Bft)
24.05.2016 08:30 6,6 C 6,6 C 86 % 1013,2 hPa 0,0 mm 2,7 km/h (1 Bft) S-SO 157 0 min 4,4 C 0,0 km/h (0 Bft)
24.05.2016 08:35 6,6 C 6,6 C 86 % 1013,2 hPa 0,0 mm 4,2 km/h (1 Bft) W-SW 247 0 min 4,4 C 4,2 km/h (1 Bft)
24.05.2016 08:40 6,7 C 6,6 C 86 % 1013,2 hPa 0,0 mm 6,3 km/h (2 Bft) W 270 0 min 4,5 C 12,5 km/h (3 Bft)
24.05.2016 08:43 6,7 C 6,6 C 86 % 1013,2 hPa 0,0 mm 5,7 km/h (1 Bft) W-SW 247 0 min 4,5 C 4,5 km/h (1 Bft)
24.05.2016 08:44 6,7 C 6,6 C 86 % 1013,2 hPa 0,0 mm 5,7 km/h (1 Bft) W-SW 247 0 min 4,5 C 4,5 km/h (1 Bft)
24.05.2016 08:50 6,7 C 6,6 C 86 % 1013,6 hPa 0,7 mm 6,0 km/h (2 Bft) SW 225 0 min 4,5 C 10,1 km/h (2 Bft)
24.05.2016 08:55 6,7 C 6,7 C 86 % 1013,6 hPa 0,0 mm 4,5 km/h (1 Bft) W 270 0 min 4,5 C 10,7 km/h (2 Bft)
24.05.2016 09:00 6,7 C 6,7 C 85 % 1013,6 hPa 0,0 mm 4,5 km/h (1 Bft) NW 315 0 min 4,4 C 6,6 km/h (2 Bft)
24.05.2016 09:05 6,7 C 6,7 C 85 % 1013,6 hPa 0,0 mm 4,5 km/h (1 Bft) W 270 0 min 4,4 C 0,0 km/h (0 Bft)
24.05.2016 09:10 6,8 C 6,7 C 85 % 1013,8 hPa 0,7 mm 4,8 km/h (1 Bft) W 270 0 min 4,5 C 6,6 km/h (2 Bft)
24.05.2016 09:15 6,8 C 6,7 C 85 % 1013,8 hPa 0,0 mm 5,4 km/h (1 Bft) S 180 0 min 4,5 C 9,8 km/h (2 Bft)
24.05.2016 09:20 6,8 C 6,7 C 85 % 1013,8 hPa 0,0 mm 6,3 km/h (2 Bft) W-SW 247 0 min 4,5 C 16,7 km/h (3 Bft)
24.05.2016 09:25 6,8 C 6,8 C 85 % 1013,8 hPa 0,7 mm 6,0 km/h (2 Bft) NW 315 0 min 4,5 C 14,9 km/h (3 Bft)
24.05.2016 09:30 6,8 C 6,7 C 85 % 1013,7 hPa 0,0 mm 6,9 km/h (2 Bft) W 270 0 min 4,5 C 20,3 km/h (4 Bft)
24.05.2016 09:35 6,9 C 6,9 C 85 % 1013,7 hPa 0,0 mm 6,6 km/h (2 Bft) W-NW 292 0 min 4,6 C 8,6 km/h (2 Bft)
24.05.2016 09:40 7,0 C 7,0 C 85 % 1013,7 hPa 0,0 mm 5,1 km/h (1 Bft) W 270 0 min 4,7 C 6,9 km/h (2 Bft)
24.05.2016 09:45 7,0 C 7,1 C 85 % 1013,7 hPa 0,0 mm 3,9 km/h (1 Bft) W-NW 292 0 min 4,7 C 0,0 km/h (0 Bft)
24.05.2016 09:50 7,0 C 7,1 C 85 % 1013,7 hPa 0,0 mm 5,4 km/h (1 Bft) S-SW 202 0 min 4,7 C 9,8 km/h (2 Bft)
24.05.2016 09:55 7,1 C 7,2 C 85 % 1013,7 hPa 0,0 mm 5,7 km/h (1 Bft) W-NW 292 0 min 4,8 C 9,8 km/h (2 Bft)
24.05.2016 10:00 7,2 C 7,4 C 85 % 1013,7 hPa 0,7 mm 6,0 km/h (2 Bft) NW 315 0 min 4,9 C 7,7 km/h (2 Bft)
24.05.2016 10:05 7,3 C 7,4 C 85 % 1013,7 hPa 0,0 mm 5,7 km/h (1 Bft) W-SW 247 0 min 4,9 C 4,8 km/h (1 Bft)
24.05.2016 10:10 7,4 C 7,6 C 85 % 1013,6 hPa 0,0 mm 3,9 km/h (1 Bft) SO 135 0 min 5,0 C 0,0 km/h (0 Bft)
24.05.2016 10:15 7,4 C 7,6 C 85 % 1013,6 hPa 0,0 mm 3,3 km/h (1 Bft) SW 225 0 min 5,0 C 3,9 km/h (1 Bft)
24.05.2016 10:20 7,4 C 7,7 C 85 % 1013,6 hPa 0,0 mm 3,0 km/h (1 Bft) W 270 0 min 5,0 C 3,6 km/h (1 Bft)
24.05.2016 10:25 7,5 C 7,6 C 85 % 1013,6 hPa 0,0 mm 3,3 km/h (1 Bft) W 270 0 min 5,1 C 7,7 km/h (2 Bft)
24.05.2016 10:30 7,5 C 7,6 C 85 % 1014,1 hPa 0,0 mm 4,8 km/h (1 Bft) W 270 0 min 5,1 C 8,6 km/h (2 Bft)
24.05.2016 10:35 7,4 C 7,5 C 85 % 1014,1 hPa 0,0 mm 5,4 km/h (1 Bft) W-SW 247 0 min 5,0 C 9,2 km/h (2 Bft)
24.05.2016 10:40 7,4 C 7,4 C 85 % 1014,1 hPa 0,0 mm 4,2 km/h (1 Bft) O-NO 67 0 min 5,0 C 6,9 km/h (2 Bft)
24.05.2016 10:45 7,4 C 7,5 C 85 % 1014,1 hPa 0,0 mm 3,0 km/h (1 Bft) SW 225 0 min 5,0 C 0,0 km/h (0 Bft)
24.05.2016 10:50 7,5 C 7,6 C 85 % 1014,2 hPa 0,0 mm 3,6 km/h (1 Bft) W-SW 247 0 min 5,1 C 11,9 km/h (2 Bft)
24.05.2016 10:55 7,6 C 7,8 C 85 % 1014,2 hPa 0,0 mm 4,5 km/h (1 Bft) W 270 0 min 5,2 C 5,1 km/h (1 Bft)
24.05.2016 11:00 7,7 C 7,9 C 85 % 1014,2 hPa 0,0 mm 6,0 km/h (2 Bft) O-NO 67 0 min 5,3 C 4,8 km/h (1 Bft)
24.05.2016 11:05 7,8 C 8,0 C 85 % 1014,2 hPa 0,0 mm 6,0 km/h (2 Bft) W-SW 247 0 min 5,4 C 3,9 km/h (1 Bft)
24.05.2016 11:10 7,8 C 8,0 C 85 % 1014,2 hPa 0,0 mm 5,1 km/h (1 Bft) NW 315 0 min 5,4 C 0,0 km/h (0 Bft)
24.05.2016 11:15 7,8 C 8,1 C 85 % 1014,2 hPa 0,0 mm 4,5 km/h (1 Bft) W-SW 247 0 min 5,4 C 3,6 km/h (1 Bft)
24.05.2016 11:20 7,8 C 8,1 C 85 % 1014,2 hPa 0,0 mm 5,1 km/h (1 Bft) W 270 0 min 5,4 C 11,6 km/h (2 Bft)
24.05.2016 11:25 7,8 C 8,1 C 85 % 1014,2 hPa 0,0 mm 5,4 km/h (1 Bft) SO 135 0 min 5,4 C 6,6 km/h (2 Bft)
24.05.2016 11:30 7,9 C 8,1 C 85 % 1014,4 hPa 0,0 mm 6,0 km/h (2 Bft) S 180 0 min 5,5 C 6,9 km/h (2 Bft)
24.05.2016 11:35 7,9 C 8,2 C 84 % 1014,4 hPa 0,0 mm 6,0 km/h (2 Bft) O-SO 112 0 min 5,4 C 7,7 km/h (2 Bft)
24.05.2016 11:40 8,1 C 8,4 C 84 % 1014,4 hPa 0,0 mm 3,9 km/h (1 Bft) W 270 0 min 5,6 C 9,2 km/h (2 Bft)
24.05.2016 11:43 8,1 C 8,4 C 84 % 1014,4 hPa 0,0 mm 4,8 km/h (1 Bft) W 270 0 min 5,6 C 14,9 km/h (3 Bft)
24.05.2016 11:45 8,1 C 8,4 C 84 % 1014,4 hPa 0,0 mm 4,8 km/h (1 Bft) W 270 0 min 5,6 C 14,9 km/h (3 Bft)
24.05.2016 11:50 8,2 C 8,5 C 84 % 1014,3 hPa 0,0 mm 5,1 km/h (1 Bft) N-NW 337 0 min 5,7 C 7,7 km/h (2 Bft)
24.05.2016 11:55 8,1 C 8,5 C 84 % 1014,3 hPa 0,0 mm 4,5 km/h (1 Bft) W 270 0 min 5,6 C 6,9 km/h (2 Bft)
24.05.2016 12:00 8,2 C 8,7 C 84 % 1014,3 hPa 0,0 mm 4,8 km/h (1 Bft) SW 225 0 min 5,7 C 14,0 km/h (3 Bft)
24.05.2016 12:05 8,3 C 8,7 C 84 % 1014,3 hPa 0,0 mm 4,5 km/h (1 Bft) W 270 0 min 5,8 C 3,6 km/h (1 Bft)
24.05.2016 12:10 8,5 C 9,0 C 84 % 1014,4 hPa 0,0 mm 3,3 km/h (1 Bft) W-SW 247 0 min 6,0 C 3,6 km/h (1 Bft)
24.05.2016 12:15 8,6 C 9,3 C 84 % 1014,4 hPa 0,0 mm 3,9 km/h (1 Bft) W-SW 247 0 min 6,1 C 8,9 km/h (2 Bft)
24.05.2016 12:20 8,7 C 9,7 C 83 % 1014,4 hPa 0,0 mm 4,2 km/h (1 Bft) W-SW 247 0 min 6,0 C 6,0 km/h (2 Bft)
24.05.2016 12:25 8,8 C 9,8 C 83 % 1014,4 hPa 0,0 mm 5,4 km/h (1 Bft) S 180 0 min 6,1 C 14,6 km/h (3 Bft)
24.05.2016 12:30 8,6 C 9,6 C 83 % 1014,6 hPa 0,0 mm 6,0 km/h (2 Bft) N-NO 22 0 min 5,9 C 0,0 km/h (0 Bft)
24.05.2016 12:35 8,5 C 9,4 C 83 % 1014,6 hPa 0,0 mm 5,7 km/h (1 Bft) NO 45 0 min 5,8 C 0,0 km/h (0 Bft)
24.05.2016 12:40 8,4 C 9,0 C 83 % 1014,6 hPa 0,0 mm 5,4 km/h (1 Bft) SW 225 0 min 5,7 C 6,6 km/h (2 Bft)
24.05.2016 12:45 8,4 C 9,0 C 83 % 1014,6 hPa 0,0 mm 3,9 km/h (1 Bft) NW 315 0 min 5,7 C 0,0 km/h (0 Bft)
24.05.2016 12:50 8,5 C 9,1 C 83 % 1014,8 hPa 0,0 mm 1,5 km/h (1 Bft) S 180 0 min 5,8 C 5,7 km/h (1 Bft)
24.05.2016 12:55 8,6 C 9,3 C 83 % 1014,8 hPa 0,0 mm 1,8 km/h (1 Bft) W 270 0 min 5,9 C 11,9 km/h (2 Bft)
24.05.2016 13:00 8,6 C 9,4 C 83 % 1014,8 hPa 0,0 mm 2,1 km/h (1 Bft) O-SO 112 0 min 5,9 C 0,0 km/h (0 Bft)
24.05.2016 13:05 8,6 C 9,4 C 83 % 1014,8 hPa 0,0 mm 2,4 km/h (1 Bft) W 270 0 min 5,9 C 3,3 km/h (1 Bft)
24.05.2016 13:10 8,7 C 9,6 C 82 % 1014,7 hPa 0,0 mm 3,3 km/h (1 Bft) W 270 0 min 5,8 C 6,0 km/h (2 Bft)
24.05.2016 13:15 8,8 C 9,8 C 82 % 1014,7 hPa 0,0 mm 3,0 km/h (1 Bft) SW 225 0 min 5,9 C 4,5 km/h (1 Bft)
24.05.2016 13:20 8,8 C 9,9 C 82 % 1014,7 hPa 0,0 mm 3,6 km/h (1 Bft) S 180 0 min 5,9 C 4,5 km/h (1 Bft)
24.05.2016 13:25 8,9 C 9,8 C 82 % 1014,7 hPa 0,0 mm 3,0 km/h (1 Bft) W-SW 247 0 min 6,0 C 0,0 km/h (0 Bft)
24.05.2016 13:30 8,9 C 9,9 C 82 % 1014,6 hPa 0,0 mm 0,9 km/h (0 Bft) W 270 0 min 6,0 C 0,0 km/h (0 Bft)
24.05.2016 13:35 8,9 C 9,9 C 82 % 1014,6 hPa 0,0 mm 0,6 km/h (0 Bft) NW 315 0 min 6,0 C 0,0 km/h (0 Bft)
24.05.2016 13:40 8,9 C 9,9 C 82 % 1014,6 hPa 0,0 mm 0,6 km/h (0 Bft) SW 225 0 min 6,0 C 0,0 km/h (0 Bft)
24.05.2016 13:45 8,9 C 9,9 C 82 % 1014,6 hPa 0,0 mm 1,2 km/h (1 Bft) W 270 0 min 6,0 C 0,0 km/h (0 Bft)
24.05.2016 13:50 9,1 C 10,1 C 82 % 1014,6 hPa 0,0 mm 1,5 km/h (1 Bft) S-SW 202 0 min 6,2 C 6,9 km/h (2 Bft)
24.05.2016 13:55 9,1 C 10,1 C 82 % 1014,6 hPa 0,0 mm 1,5 km/h (1 Bft) S 180 0 min 6,2 C 3,6 km/h (1 Bft)
24.05.2016 14:00 9,2 C 10,3 C 82 % 1014,6 hPa 0,0 mm 2,4 km/h (1 Bft) W-SW 247 0 min 6,3 C 4,8 km/h (1 Bft)
24.05.2016 14:05 9,2 C 10,5 C 82 % 1014,6 hPa 0,0 mm 2,4 km/h (1 Bft) W-SW 247 0 min 6,3 C 8,0 km/h (2 Bft)
24.05.2016 14:10 9,3 C 10,8 C 81 % 1014,5 hPa 0,0 mm 2,1 km/h (1 Bft) W 270 0 min 6,2 C 3,9 km/h (1 Bft)
24.05.2016 14:15 9,3 C 10,8 C 81 % 1014,5 hPa 0,0 mm 3,0 km/h (1 Bft) W 270 0 min 6,2 C 11,6 km/h (2 Bft)
24.05.2016 14:20 9,3 C 10,7 C 81 % 1014,5 hPa 0,0 mm 4,5 km/h (1 Bft) W 270 0 min 6,2 C 8,0 km/h (2 Bft)
24.05.2016 14:25 9,4 C 10,8 C 81 % 1014,5 hPa 0,0 mm 4,8 km/h (1 Bft) S 180 0 min 6,3 C 11,9 km/h (2 Bft)
24.05.2016 14:30 9,5 C 11,1 C 81 % 1014,2 hPa 0,0 mm 5,1 km/h (1 Bft) N-NO 22 0 min 6,4 C 0,0 km/h (0 Bft)
24.05.2016 14:35 9,6 C 11,2 C 81 % 1014,2 hPa 0,0 mm 4,8 km/h (1 Bft) SW 225 0 min 6,5 C 13,4 km/h (3 Bft)
24.05.2016 14:40 9,6 C 11,1 C 80 % 1014,2 hPa 0,0 mm 3,3 km/h (1 Bft) SW 225 0 min 6,3 C 8,6 km/h (2 Bft)
24.05.2016 14:43 9,6 C 11,3 C 80 % 1014,2 hPa 0,0 mm 3,9 km/h (1 Bft) S 180 0 min 6,3 C 4,8 km/h (1 Bft)
24.05.2016 14:46 9,6 C 11,3 C 80 % 1014,2 hPa 0,0 mm 3,9 km/h (1 Bft) S 180 0 min 6,3 C 4,8 km/h (1 Bft)
24.05.2016 14:50 9,8 C 11,5 C 80 % 1014,6 hPa 0,0 mm 2,4 km/h (1 Bft) O 90 0 min 6,5 C 7,7 km/h (2 Bft)
24.05.2016 14:55 9,8 C 11,5 C 80 % 1014,6 hPa 0,0 mm 3,3 km/h (1 Bft) N-NO 22 0 min 6,5 C 8,3 km/h (2 Bft)
24.05.2016 15:00 9,8 C 11,5 C 80 % 1014,6 hPa 0,0 mm 4,8 km/h (1 Bft) SW 225 0 min 6,5 C 7,2 km/h (2 Bft)
24.05.2016 15:05 9,7 C 11,4 C 79 % 1014,6 hPa 0,0 mm 5,1 km/h (1 Bft) S 180 0 min 6,2 C 7,2 km/h (2 Bft)
24.05.2016 15:10 9,7 C 11,2 C 79 % 1014,6 hPa 0,0 mm 6,6 km/h (2 Bft) NO 45 0 min 6,2 C 0,0 km/h (0 Bft)
24.05.2016 15:16 9,6 C 11,1 C 79 % 1014,6 hPa 0,0 mm 6,9 km/h (2 Bft) NW 315 0 min 6,1 C 7,5 km/h (2 Bft)
24.05.2016 15:20 9,7 C 11,1 C 79 % 1014,6 hPa 0,0 mm 5,4 km/h (1 Bft) SW 225 0 min 6,2 C 5,7 km/h (1 Bft)
24.05.2016 15:25 9,9 C 11,5 C 79 % 1014,6 hPa 0,0 mm 4,5 km/h (1 Bft) W-SW 247 0 min 6,4 C 4,2 km/h (1 Bft)
24.05.2016 15:30 10,1 C 11,9 C 78 % 1014,6 hPa 0,0 mm 4,5 km/h (1 Bft) W 270 0 min 6,4 C 6,6 km/h (2 Bft)
24.05.2016 15:35 10,2 C 12,2 C 78 % 1014,6 hPa 0,0 mm 4,8 km/h (1 Bft) S 180 0 min 6,5 C 6,0 km/h (2 Bft)
24.05.2016 15:40 10,3 C 12,3 C 78 % 1014,6 hPa 0,0 mm 6,6 km/h (2 Bft) W-NW 292 0 min 6,6 C 22,1 km/h (4 Bft)
24.05.2016 15:45 10,2 C 12,2 C 78 % 1014,6 hPa 0,0 mm 7,2 km/h (2 Bft) W 270 0 min 6,5 C 5,4 km/h (1 Bft)
24.05.2016 15:50 10,3 C 12,4 C 77 % 1014,6 hPa 0,0 mm 8,0 km/h (2 Bft) O-NO 67 0 min 6,4 C 7,7 km/h (2 Bft)
24.05.2016 15:55 10,3 C 12,4 C 77 % 1014,6 hPa 0,0 mm 6,0 km/h (2 Bft) W 270 0 min 6,4 C 8,9 km/h (2 Bft)
24.05.2016 16:00 10,3 C 12,4 C 77 % 1014,6 hPa 0,0 mm 4,8 km/h (1 Bft) W 270 0 min 6,4 C 10,7 km/h (2 Bft)
24.05.2016 16:05 10,2 C 12,1 C 76 % 1014,6 hPa 0,0 mm 8,6 km/h (2 Bft) W-SW 247 0 min 6,2 C 23,5 km/h (4 Bft)
24.05.2016 16:10 10,0 C 11,3 C 76 % 1014,8 hPa 0,0 mm 11,0 km/h (2 Bft) W-NW 292 0 min 6,0 C 9,2 km/h (2 Bft)
24.05.2016 16:15 10,1 C 11,3 C 76 % 1014,8 hPa 0,0 mm 9,8 km/h (2 Bft) NW 315 0 min 6,1 C 6,9 km/h (2 Bft)
24.05.2016 16:20 10,0 C 11,5 C 76 % 1014,8 hPa 0,0 mm 6,3 km/h (2 Bft) W-NW 292 0 min 6,0 C 6,6 km/h (2 Bft)
24.05.2016 16:25 10,0 C 11,3 C 76 % 1014,8 hPa 0,0 mm 7,2 km/h (2 Bft) O 90 0 min 6,0 C 6,6 km/h (2 Bft)
24.05.2016 16:30 10,1 C 11,1 C 77 % 1014,8 hPa 0,0 mm 7,2 km/h (2 Bft) NW 315 0 min 6,3 C 6,9 km/h (2 Bft)
24.05.2016 16:35 10,1 C 11,0 C 77 % 1014,8 hPa 0,0 mm 7,2 km/h (2 Bft) W 270 0 min 6,3 C 5,1 km/h (1 Bft)
24.05.2016 16:40 10,1 C 10,9 C 77 % 1014,8 hPa 0,0 mm 7,7 km/h (2 Bft) W-SW 247 0 min 6,3 C 16,7 km/h (3 Bft)
24.05.2016 16:45 10,2 C 10,8 C 77 % 1014,8 hPa 0,0 mm 8,3 km/h (2 Bft) W 270 0 min 6,4 C 4,8 km/h (1 Bft)
24.05.2016 16:50 10,3 C 11,1 C 77 % 1014,4 hPa 0,0 mm 5,7 km/h (1 Bft) W-NW 292 0 min 6,4 C 0,0 km/h (0 Bft)
24.05.2016 16:55 10,5 C 11,5 C 77 % 1014,4 hPa 0,0 mm 3,3 km/h (1 Bft) NW 315 0 min 6,6 C 0,0 km/h (0 Bft)
24.05.2016 17:00 10,5 C 12,0 C 77 % 1014,4 hPa 0,0 mm 5,1 km/h (1 Bft) S 180 0 min 6,6 C 0,0 km/h (0 Bft)
24.05.2016 17:05 10,5 C 12,0 C 77 % 1014,4 hPa 0,0 mm 4,2 km/h (1 Bft) W 270 0 min 6,6 C 8,3 km/h (2 Bft)
24.05.2016 17:10 10,3 C 11,9 C 77 % 1014,4 hPa 0,0 mm 4,5 km/h (1 Bft) O-NO 67 0 min 6,4 C 5,4 km/h (1 Bft)
24.05.2016 17:15 10,2 C 11,6 C 77 % 1014,4 hPa 0,0 mm 5,1 km/h (1 Bft) N-NW 337 0 min 6,4 C 4,2 km/h (1 Bft)
24.05.2016 17:20 10,2 C 11,5 C 77 % 1014,4 hPa 0,0 mm 4,2 km/h (1 Bft) W 270 0 min 6,4 C 8,3 km/h (2 Bft)
24.05.2016 17:25 10,2 C 11,5 C 77 % 1014,4 hPa 0,0 mm 3,6 km/h (1 Bft) W-NW 292 0 min 6,4 C 6,9 km/h (2 Bft)
24.05.2016 17:30 10,2 C 11,4 C 77 % 1014,4 hPa 0,0 mm 3,6 km/h (1 Bft) W-SW 247 0 min 6,4 C 5,1 km/h (1 Bft)
24.05.2016 17:35 10,2 C 11,4 C 77 % 1014,4 hPa 0,0 mm 4,2 km/h (1 Bft) NW 315 0 min 6,4 C 8,0 km/h (2 Bft)
24.05.2016 17:40 10,2 C 11,2 C 77 % 1014,4 hPa 0,0 mm 3,9 km/h (1 Bft) W 270 0 min 6,4 C 6,6 km/h (2 Bft)
24.05.2016 17:45 10,1 C 11,1 C 77 % 1014,4 hPa 0,0 mm 3,0 km/h (1 Bft) W-SW 247 0 min 6,3 C 0,0 km/h (0 Bft)
24.05.2016 17:47 10,1 C 11,1 C 77 % 1014,4 hPa 0,0 mm 3,0 km/h (1 Bft) W-SW 247 0 min 6,3 C 0,0 km/h (0 Bft)
24.05.2016 17:50 10,1 C 11,1 C 76 % 1014,4 hPa 0,0 mm 3,3 km/h (1 Bft) NW 315 0 min 6,1 C 12,5 km/h (3 Bft)
24.05.2016 17:55 10,0 C 11,0 C 76 % 1014,4 hPa 0,0 mm 5,4 km/h (1 Bft) NW 315 0 min 6,0 C 6,9 km/h (2 Bft)
24.05.2016 18:00 10,1 C 10,9 C 76 % 1014,4 hPa 0,0 mm 5,7 km/h (1 Bft) W 270 0 min 6,1 C 0,0 km/h (0 Bft)
24.05.2016 18:05 10,1 C 11,1 C 76 % 1014,4 hPa 0,0 mm 3,0 km/h (1 Bft) S-SW 202 0 min 6,1 C 0,0 km/h (0 Bft)
24.05.2016 18:10 10,2 C 11,1 C 76 % 1014,6 hPa 0,0 mm 1,8 km/h (1 Bft) W-NW 292 0 min 6,2 C 6,0 km/h (2 Bft)
24.05.2016 18:15 10,2 C 11,2 C 76 % 1014,6 hPa 0,0 mm 2,4 km/h (1 Bft) W 270 0 min 6,2 C 0,0 km/h (0 Bft)
24.05.2016 18:20 10,2 C 11,2 C 76 % 1014,6 hPa 0,0 mm 2,4 km/h (1 Bft) W 270 0 min 6,2 C 0,0 km/h (0 Bft)
24.05.2016 18:25 10,2 C 11,1 C 76 % 1014,6 hPa 0,0 mm 3,6 km/h (1 Bft) W-SW 247 0 min 6,2 C 0,0 km/h (0 Bft)
24.05.2016 18:30 10,2 C 11,0 C 75 % 1014,6 hPa 0,0 mm 3,6 km/h (1 Bft) W-NW 292 0 min 6,0 C 3,3 km/h (1 Bft)
24.05.2016 18:35 10,1 C 10,9 C 75 % 1014,6 hPa 0,0 mm 2,1 km/h (1 Bft) NW 315 0 min 5,9 C 0,0 km/h (0 Bft)
24.05.2016 18:40 10,2 C 10,9 C 75 % 1014,6 hPa 0,0 mm 1,2 km/h (1 Bft) NO 45 0 min 6,0 C 0,0 km/h (0 Bft)
24.05.2016 18:45 10,2 C 11,0 C 75 % 1014,6 hPa 0,0 mm 0,9 km/h (0 Bft) W-SW 247 0 min 6,0 C 8,0 km/h (2 Bft)
24.05.2016 18:50 10,1 C 10,8 C 75 % 1014,6 hPa 0,0 mm 1,2 km/h (1 Bft) S 180 0 min 5,9 C 4,2 km/h (1 Bft)
24.05.2016 18:55 10,0 C 10,8 C 75 % 1014,6 hPa 0,0 mm 2,7 km/h (1 Bft) W-SW 247 0 min 5,8 C 0,0 km/h (0 Bft)
24.05.2016 19:00 10,1 C 10,8 C 75 % 1014,6 hPa 0,0 mm 3,3 km/h (1 Bft) S 180 0 min 5,9 C 0,0 km/h (0 Bft)
24.05.2016 19:05 10,2 C 10,8 C 75 % 1014,6 hPa 0,0 mm 1,5 km/h (1 Bft) S-SW 202 0 min 6,0 C 0,0 km/h (0 Bft)
24.05.2016 19:10 10,2 C 10,8 C 75 % 1014,8 hPa 0,0 mm 0,0 km/h (0 Bft) NW 315 0 min 6,0 C 0,0 km/h (0 Bft)
24.05.2016 19:15 10,2 C 10,8 C 75 % 1014,8 hPa 0,0 mm 0,9 km/h (0 Bft) NW 315 0 min 6,0 C 0,0 km/h (0 Bft)
24.05.2016 19:20 10,1 C 10,7 C 75 % 1014,8 hPa 0,0 mm 0,9 km/h (0 Bft) N-NW 337 0 min 5,9 C 0,0 km/h (0 Bft)
24.05.2016 19:25 10,1 C 10,5 C 75 % 1014,8 hPa 0,0 mm 0,0 km/h (0 Bft) W 270 0 min 5,9 C 0,0 km/h (0 Bft)
24.05.2016 19:30 10,0 C 10,4 C 75 % 1014,9 hPa 0,0 mm 0,0 km/h (0 Bft) W 270 0 min 5,8 C 4,2 km/h (1 Bft)
24.05.2016 19:35 9,9 C 10,3 C 75 % 1014,9 hPa 0,0 mm 0,6 km/h (0 Bft) W 270 0 min 5,7 C 8,9 km/h (2 Bft)
24.05.2016 19:40 9,8 C 10,1 C 75 % 1014,9 hPa 0,0 mm 1,5 km/h (1 Bft) W-NW 292 0 min 5,6 C 4,2 km/h (1 Bft)
24.05.2016 19:45 9,7 C 10,0 C 76 % 1014,9 hPa 0,0 mm 3,0 km/h (1 Bft) NW 315 0 min 5,7 C 0,0 km/h (0 Bft)
24.05.2016 19:50 9,7 C 9,9 C 76 % 1015,0 hPa 0,0 mm 1,8 km/h (1 Bft) W-SW 247 0 min 5,7 C 0,0 km/h (0 Bft)
24.05.2016 19:55 9,6 C 9,7 C 76 % 1015,0 hPa 0,0 mm 0,3 km/h (0 Bft) W 270 0 min 5,6 C 0,0 km/h (0 Bft)
24.05.2016 20:00 9,6 C 9,7 C 76 % 1015,0 hPa 0,0 mm 0,0 km/h (0 Bft) NW 315 0 min 5,6 C 0,0 km/h (0 Bft)
24.05.2016 20:05 9,5 C 9,6 C 76 % 1015,0 hPa 0,0 mm 0,0 km/h (0 Bft) S-SO 157 0 min 5,5 C 0,0 km/h (0 Bft)
24.05.2016 20:10 9,4 C 9,4 C 76 % 1014,9 hPa 0,0 mm 0,0 km/h (0 Bft) S 180 0 min 5,4 C 0,0 km/h (0 Bft)
24.05.2016 20:15 9,4 C 9,3 C 77 % 1014,9 hPa 0,0 mm 0,0 km/h (0 Bft) W-NW 292 0 min 5,6 C 0,0 km/h (0 Bft)
24.05.2016 20:20 9,3 C 9,2 C 77 % 1014,9 hPa 0,0 mm 0,3 km/h (0 Bft) SW 225 0 min 5,5 C 0,0 km/h (0 Bft)
24.05.2016 20:25 9,2 C 9,1 C 77 % 1014,9 hPa 0,0 mm 0,3 km/h (0 Bft) W 270 0 min 5,4 C 0,0 km/h (0 Bft)
24.05.2016 20:30 9,2 C 9,0 C 77 % 1014,7 hPa 0,0 mm 0,0 km/h (0 Bft) SO 135 0 min 5,4 C 0,0 km/h (0 Bft)
24.05.2016 20:35 9,1 C 8,9 C 77 % 1014,7 hPa 0,0 mm 0,6 km/h (0 Bft) S 180 0 min 5,3 C 4,8 km/h (1 Bft)
24.05.2016 20:40 9,0 C 8,8 C 77 % 1014,7 hPa 0,0 mm 0,9 km/h (0 Bft) S-SW 202 0 min 5,2 C 0,0 km/h (0 Bft)
24.05.2016 20:45 9,0 C 8,8 C 77 % 1014,7 hPa 0,0 mm 0,6 km/h (0 Bft) S-SW 202 0 min 5,2 C 5,4 km/h (1 Bft)
24.05.2016 20:48 8,9 C 8,8 C 78 % 1014,8 hPa 0,0 mm 0,6 km/h (0 Bft) SO 135 0 min 5,3 C 0,0 km/h (0 Bft)
24.05.2016 20:50 8,9 C 8,8 C 78 % 1014,8 hPa 0,0 mm 0,6 km/h (0 Bft) SO 135 0 min 5,3 C 0,0 km/h (0 Bft)
24.05.2016 20:55 8,9 C 8,7 C 78 % 1014,8 hPa 0,0 mm 0,6 km/h (0 Bft) SW 225 0 min 5,3 C 0,0 km/h (0 Bft)
24.05.2016 21:00 8,8 C 8,7 C 78 % 1014,8 hPa 0,0 mm 0,0 km/h (0 Bft) S-SW 202 0 min 5,2 C 0,0 km/h (0 Bft)
24.05.2016 21:05 8,8 C 8,6 C 78 % 1014,8 hPa 0,0 mm 0,0 km/h (0 Bft) N-NO 22 0 min 5,2 C 0,0 km/h (0 Bft)
24.05.2016 21:10 8,6 C 8,5 C 78 % 1015,3 hPa 0,0 mm 0,0 km/h (0 Bft) S 180 0 min 5,0 C 0,0 km/h (0 Bft)
24.05.2016 21:15 8,5 C 8,4 C 79 % 1015,3 hPa 0,0 mm 0,0 km/h (0 Bft) O-SO 112 0 min 5,1 C 0,0 km/h (0 Bft)
24.05.2016 21:20 8,5 C 8,4 C 79 % 1015,3 hPa 0,0 mm 0,0 km/h (0 Bft) SO 135 0 min 5,1 C 0,0 km/h (0 Bft)
24.05.2016 21:25 8,4 C 8,4 C 79 % 1015,3 hPa 0,0 mm 0,0 km/h (0 Bft) S 180 0 min 5,0 C 0,0 km/h (0 Bft)
24.05.2016 21:30 8,4 C 8,4 C 80 % 1014,9 hPa 0,0 mm 0,0 km/h (0 Bft) SW 225 0 min 5,2 C 0,0 km/h (0 Bft)
24.05.2016 21:35 8,4 C 8,3 C 80 % 1014,9 hPa 0,0 mm 0,0 km/h (0 Bft) S 180 0 min 5,2 C 0,0 km/h (0 Bft)
24.05.2016 21:40 8,4 C 8,3 C 80 % 1014,9 hPa 0,0 mm 0,0 km/h (0 Bft) S 180 0 min 5,2 C 0,0 km/h (0 Bft)
24.05.2016 21:45 8,3 C 8,2 C 80 % 1014,9 hPa 0,0 mm 0,0 km/h (0 Bft) O-NO 67 0 min 5,1 C 0,0 km/h (0 Bft)
24.05.2016 21:50 8,3 C 8,1 C 80 % 1014,9 hPa 0,0 mm 0,0 km/h (0 Bft) O-NO 67 0 min 5,1 C 0,0 km/h (0 Bft)
24.05.2016 21:55 8,2 C 7,9 C 81 % 1014,9 hPa 0,0 mm 0,0 km/h (0 Bft) S 180 0 min 5,1 C 0,0 km/h (0 Bft)
24.05.2016 22:00 8,1 C 7,9 C 81 % 1014,9 hPa 0,0 mm 0,0 km/h (0 Bft) S-SO 157 0 min 5,0 C 0,0 km/h (0 Bft)
24.05.2016 22:05 8,1 C 7,8 C 81 % 1014,9 hPa 0,0 mm 0,0 km/h (0 Bft) O-NO 67 0 min 5,0 C 0,0 km/h (0 Bft)
24.05.2016 22:10 8,0 C 7,8 C 82 % 1014,9 hPa 0,0 mm 0,0 km/h (0 Bft) O-NO 67 0 min 5,1 C 0,0 km/h (0 Bft)
24.05.2016 22:15 8,0 C 7,8 C 82 % 1014,9 hPa 0,0 mm 0,0 km/h (0 Bft) O-NO 67 0 min 5,1 C 0,0 km/h (0 Bft)
24.05.2016 22:20 7,9 C 7,7 C 82 % 1014,9 hPa 0,0 mm 0,0 km/h (0 Bft) NO 45 0 min 5,0 C 0,0 km/h (0 Bft)
24.05.2016 22:25 7,9 C 7,7 C 82 % 1014,9 hPa 0,0 mm 0,0 km/h (0 Bft) S-SO 157 0 min 5,0 C 0,0 km/h (0 Bft)
24.05.2016 22:30 7,9 C 7,8 C 83 % 1014,9 hPa 0,0 mm 0,0 km/h (0 Bft) S-SO 157 0 min 5,2 C 0,0 km/h (0 Bft)
24.05.2016 22:35 7,9 C 7,8 C 83 % 1014,9 hPa 0,0 mm 0,0 km/h (0 Bft) S 180 0 min 5,2 C 0,0 km/h (0 Bft)
24.05.2016 22:40 7,9 C 7,8 C 83 % 1014,9 hPa 0,0 mm 0,0 km/h (0 Bft) S-SO 157 0 min 5,2 C 0,0 km/h (0 Bft)
24.05.2016 22:45 7,9 C 7,8 C 84 % 1014,9 hPa 0,0 mm 0,0 km/h (0 Bft) SO 135 0 min 5,4 C 0,0 km/h (0 Bft)
24.05.2016 22:50 7,8 C 7,8 C 84 % 1015,1 hPa 0,0 mm 0,0 km/h (0 Bft) S-SO 157 0 min 5,3 C 0,0 km/h (0 Bft)
24.05.2016 22:55 7,8 C 7,7 C 84 % 1015,1 hPa 0,0 mm 0,0 km/h (0 Bft) S 180 0 min 5,3 C 0,0 km/h (0 Bft)
24.05.2016 23:00 7,8 C 7,7 C 84 % 1015,1 hPa 0,0 mm 0,0 km/h (0 Bft) O-NO 67 0 min 5,3 C 0,0 km/h (0 Bft)
24.05.2016 23:05 7,8 C 7,7 C 84 % 1015,1 hPa 0,0 mm 0,0 km/h (0 Bft) NO 45 0 min 5,3 C 0,0 km/h (0 Bft)
24.05.2016 23:10 7,8 C 7,6 C 84 % 1014,8 hPa 0,0 mm 0,0 km/h (0 Bft) O-NO 67 0 min 5,3 C 0,0 km/h (0 Bft)
24.05.2016 23:15 7,7 C 7,6 C 84 % 1014,8 hPa 0,0 mm 0,0 km/h (0 Bft) O-NO 67 0 min 5,2 C 0,0 km/h (0 Bft)
24.05.2016 23:20 7,7 C 7,6 C 84 % 1014,8 hPa 0,0 mm 0,0 km/h (0 Bft) O-NO 67 0 min 5,2 C 0,0 km/h (0 Bft)
24.05.2016 23:25 7,7 C 7,6 C 84 % 1014,8 hPa 0,0 mm 0,0 km/h (0 Bft) O-NO 67 0 min 5,2 C 0,0 km/h (0 Bft)
24.05.2016 23:30 7,7 C 7,6 C 84 % 1014,8 hPa 0,0 mm 0,0 km/h (0 Bft) O-NO 67 0 min 5,2 C 0,0 km/h (0 Bft)
24.05.2016 23:35 7,7 C 7,6 C 84 % 1014,8 hPa 0,0 mm 0,0 km/h (0 Bft) S 180 0 min 5,2 C 0,0 km/h (0 Bft)
24.05.2016 23:40 7,7 C 7,6 C 84 % 1014,8 hPa 0,0 mm 0,0 km/h (0 Bft) O 90 0 min 5,2 C 0,0 km/h (0 Bft)
24.05.2016 23:45 7,7 C 7,6 C 84 % 1014,8 hPa 0,0 mm 0,0 km/h (0 Bft) SO 135 0 min 5,2 C 0,0 km/h (0 Bft)
24.05.2016 23:48 7,6 C 7,5 C 84 % 1014,6 hPa 0,0 mm 0,0 km/h (0 Bft) NO 45 0 min 5,1 C 0,0 km/h (0 Bft)
24.05.2016 23:49 7,6 C 7,5 C 84 % 1014,6 hPa 0,0 mm 0,0 km/h (0 Bft) NO 45 0 min 5,1 C 0,0 km/h (0 Bft)
24.05.2016 23:55 7,6 C 7,5 C 84 % 1014,6 hPa 0,0 mm 0,0 km/h (0 Bft) NW 315 0 min 5,1 C 0,0 km/h (0 Bft)
_ Min-Zeit 01:00 01:25 19:40 03:45 - 23:55 - - - 01:00 23:55
Minimum _ 5,2 C 4,6 C 75 % 1012,4 hPa - 0,0 km/h (0 Bft) - - - 2,9 C 0,0 km/h (0 Bft)
_ Max-Zeit 17:05 16:00 08:55 21:25 10:00 16:10 - - 23:55 17:05 01:25
Maximum _ 10,5 C 12,4 C 86 % 1015,3 hPa 0,7 mm 11,0 km/h
W-NW (2 Bft)
- - 0 min 6,6 C 30,4 km/h
S (5 Bft)
Durchschnitt _ 7,7 C 7,9 C 82 % 1013,9 hPa #15,1 mm 3,6 km/h (1 Bft) W - #0 min. 4,8 C 5,1 km/h (1 Bft)